Location: Arpaise
(41.0333°N, 14.7333°E)
Time: 15:13:32
(UTC+00:00)

Spot 2 Rocket - Pass Details

Date: 05 July 2020
Orbit: 757 x 772 km, 98.6° (Epoch: 11 August)

Event Time Altitude Azimuth Distance (km) Brightness Sun altitude
Exits shadow 19:36:33 12° 140° (SE) 2,130 5.1 -9.9°
Maximum altitude 19:40:55 46° 70° (ENE) 1,034 4.0 -10.5°
Drops below altitude 10° 19:45:46 10° 359° (N) 2,322 6.7 -11.2°
Sets 19:48:10 0° 353° (N) 3,254 7.6 -11.5°
